OZ1IEP-5 Weather Reports


time (UTC)temp
C
wind
direction
speed
KPH
gust
KPH
rain 1hr
cm
rain 24hr
cm
rain mn
cm
humidity
%
barometer
mb
20260504082005 10 232 0.0 3.2 0.00 0.64 0.15 93 1007.8
20260504081005 10 287 0.0 1.6 0.00 0.64 0.15 93 1007.7
20260504050008 10 305 11.3 19.3 0.00 0.64 0.15 93 1004.9
20260504045005 11 313 11.3 20.9 0.00 0.64 0.15 93 1004.8
20260504044006 11 313 8.0 20.9 0.00 0.64 0.15 93 1004.6
20260504043008 11 311 14.5 20.9 0.00 0.64 0.15 93 1004.6
20260504042005 12 223 1.6 16.1 0.00 0.64 0.15 93 1004.6
20260504041006 12 251 3.2 16.1 0.00 0.64 0.15 93 1004.5
20260504040009 12 233 1.6 14.5 0.00 0.64 0.15 93 1004.6
20260504035006 12 221 3.2 14.5 0.00 0.64 0.15 93 1004.5
20260504034006 12 227 3.2 16.1 0.00 0.64 0.15 93 1004.5
20260504033010 12 228 1.6 19.3 0.00 0.64 0.15 93 1004.5
20260504032006 12 225 3.2 16.1 0.00 0.64 0.15 93 1004.6
20260504031006 12 230 3.2 9.7 0.00 0.64 0.15 93 1004.6
20260504030008 12 218 3.2 16.1 0.00 0.64 0.15 93 1004.6
20260504025006 12 223 3.2 19.3 0.00 0.64 0.15 93 1004.6
20260504024005 12 216 1.6 11.3 0.03 0.64 0.15 93 1004.6
20260504023008 12 214 3.2 16.1 0.03 0.64 0.15 93 1004.6
20260504022006 12 195 3.2 14.5 0.03 0.64 0.15 93 1004.6
20260504021006 12 190 0.0 4.8 0.03 0.64 0.15 93 1004.6
20260504020009 12 207 1.6 9.7 0.03 0.64 0.15 93 1004.6
20260504015006 12 136 0.0 1.6 0.03 0.64 0.15 93 1004.6
20260504014006 12 136 0.0 0.0 0.03 0.61 0.13 93 1004.6
20260504013009 12 136 0.0 0.0 0.03 0.61 0.13 93 1004.6
20260504012006 12 136 0.0 0.0 0.03 0.61 0.13 93 1004.5
20260504011006 12 136 0.0 0.0 0.05 0.61 0.13 93 1004.6
20260504010009 12 136 0.0 0.0 0.05 0.61 0.13 93 1004.6
20260504005006 12 136 0.0 0.0 0.05 0.61 0.13 93 1004.7
20260504004005 12 136 0.0 0.0 0.03 0.61 0.10 93 1004.6
20260504003009 12 136 0.0 0.0 0.03 0.61 0.10 93 1004.5
20260504002006 12 136 0.0 0.0 0.03 0.61 0.10 93 1004.6
20260504001005 12 136 0.0 0.0 0.00 0.58 0.08 93 1004.6
20260504000008 12 136 0.0 0.0 0.00 0.58 0.08 93 1004.6
20260503235006 12 136 0.0 0.0 0.03 0.58 0.08 93 1004.7
20260503234006 12 136 0.0 1.6 0.03 0.58 0.08 93 1004.9
20260503233009 12 136 1.6 3.2 0.05 0.58 0.08 93 1005.0
20260503232006 12 136 0.0 1.6 0.05 0.58 0.08 92 1005.1
20260503231005 12 136 0.0 3.2 0.05 0.58 0.08 92 1005.1
20260503230008 12 136 0.0 4.8 0.08 0.58 0.08 92 1005.3
20260503225006 12 118 1.6 4.8 0.08 0.56 0.05 92 1005.5
20260503224006 12 134 3.2 9.7 0.08 0.56 0.05 92 1005.6
20260503223009 12 124 4.8 9.7 0.10 0.53 0.05 92 1005.6
20260503222006 12 117 4.8 11.3 0.10 0.51 0.03 92 1005.7
20260503221006 12 118 4.8 11.3 0.15 0.51 0.03 92 1005.8
20260503220009 12 128 3.2 8.0 0.18 0.51 0.00 92 1005.8
20260503215006 12 140 4.8 4.8 0.18 0.48 0.48 92 1006.1
20260503214006 12 139 0.0 1.6 0.18 0.48 0.48 92 1006.3
20260503213009 12 139 0.0 4.8 0.15 0.46 0.46 91 1006.2
20260503212006 12 140 0.0 8.0 0.15 0.43 0.43 91 1006.3
20260503211006 12 136 3.2 8.0 0.15 0.38 0.38 91 1006.4
20260503210008 12 57 0.0 3.2 0.15 0.33 0.33 91 1006.2
20260503205006 12 57 0.0 8.0 0.20 0.30 0.30 91 1005.6
20260503204006 12 53 1.6 12.9 0.30 0.30 0.30 90 1005.7
20260503203009 12 32 1.6 8.0 0.30 0.30 0.30 90 1006.1
20260503202006 12 38 1.6 9.7 0.28 0.28 0.28 89 1006.2
20260503201006 12 6 1.6 8.0 0.23 0.23 0.23 88 1006.4
20260503200008 13 73 0.0 3.2 0.20 0.20 0.20 88 1007.2
20260503195006 13 73 0.0 3.2 0.10 0.10 0.10 87 1007.0
20260503194005 13 72 0.0 3.2 0.00 0.00 0.00 86 1007.2
20260503193008 13 21 0.0 4.8 0.00 0.00 0.00 86 1006.7
20260503192006 13 52 0.0 4.8 0.00 0.00 0.00 86 1006.8
20260503191006 13 66 0.0 4.8 0.00 0.00 0.00 85 1006.7
20260503190019 13 42 1.6 8.0 0.00 0.00 0.00 85 1006.6
20260503185005 13 18 4.8 14.5 0.00 0.00 0.00 84 1006.5
20260503184006 13 30 8.0 16.1 0.00 0.00 0.00 84 1006.5
20260503183008 13 36 1.6 11.3 0.00 0.00 0.00 83 1006.4
20260503182006 13 33 3.2 8.0 0.00 0.00 0.00 82 1006.6
20260503181006 13 38 4.8 11.3 0.00 0.00 0.00 82 1006.7
20260503180008 13 40 1.6 9.7 0.00 0.00 0.00 83 1006.9
20260503175005 13 33 1.6 8.0 0.00 0.00 0.00 84 1006.9
20260503174006 13 29 3.2 4.8 0.00 0.00 0.00 83 1006.8
20260503173008 13 28 1.6 9.7 0.00 0.00 0.00 83 1006.8
20260503172006 13 35 1.6 9.7 0.00 0.00 0.00 82 1006.8
20260503171005 13 68 1.6 8.0 0.00 0.00 0.00 82 1007.1
20260503151006 14 310 6.4 8.0 0.00 0.00 0.00 81 1008.3
20260503131005 15 200 0.0 4.8 0.00 0.00 0.00 84 1009.3